INTELSAT 18 (IS-18)

Last updated on Wed May 14 2025 00:02:42 GMT+0000 (Coordinated Universal Time)

1 37834U 11056A 25133.60884919 .00000070 00000+0 00000+0 0 9992 2 37834 0.0140 289.7939 0002052 126.0647 214.9461 1.00271634 49806
UTC large
Height (km)
Speed (km/s)
/
Latitude / Longitude
Inclination (degrees)
Orbital Period (minutes)
Azimuth
Elevation
Range (km)
Doppler Factor

Next 0 passes for location: London (51.5072 / 0.1276)

Sorry there are no passes over London.